EN

Hourly Weather Bouna

Today, 8 May, Saturday

Time Temperature Precipitation Wind Pressure Humidity
00:00 +26°C° 0 mm 2 mps 732 mmHg 72%
01:00 +26°C° 0.1 mm 2 mps 732 mmHg 74%
02:00 +25°C° 0.1 mm 2 mps 732 mmHg 77%
03:00 +25°C° 0.1 mm 2 mps 731 mmHg 80%
04:00 +25°C° 0 mm 2 mps 732 mmHg 81%
05:00 +25°C° 0 mm 2 mps 732 mmHg 83%
06:00 +24°C° 0 mm 2 mps 732 mmHg 84%
07:00 +27°C° 0 mm 2 mps 732 mmHg 75%
08:00 +29°C° 0 mm 3 mps 733 mmHg 66%
09:00 +31°C° 0 mm 3 mps 733 mmHg 57%
10:00 +34°C° 0 mm 3 mps 733 mmHg 50%
11:00 +36°C° 0 mm 3 mps 733 mmHg 43%
12:00 +38°C° 0 mm 2 mps 732 mmHg 36%
13:00 +39°C° 0 mm 2 mps 731 mmHg 33%
14:00 +40°C° 0 mm 2 mps 731 mmHg 30%
15:00 +41°C° 0 mm 1 mps 730 mmHg 26%
16:00 +39°C° 0.1 mm 2 mps 730 mmHg 33%
17:00 +36°C° 0.1 mm 2 mps 730 mmHg 39%
18:00 +34°C° 0.1 mm 2 mps 730 mmHg 45%
19:00 +31°C° 0.6 mm 2 mps 731 mmHg 56%
20:00 +29°C° 0.6 mm 2 mps 731 mmHg 67%
21:00 +27°C° 0.6 mm 2 mps 732 mmHg 77%
22:00 +27°C° 0.1 mm 2 mps 732 mmHg 76%
23:00 +27°C° 0.1 mm 3 mps 732 mmHg 75%

Tomorrow, 9 May, Sunday

Time Temperature Precipitation Wind Pressure Humidity
00:00 +27°C° 0.1 mm 3 mps 731 mmHg 74%
01:00 +26°C° 0.1 mm 3 mps 731 mmHg 77%
02:00 +26°C° 0.1 mm 2 mps 731 mmHg 80%
03:00 +25°C° 0.1 mm 2 mps 731 mmHg 83%
04:00 +25°C° 0 mm 2 mps 732 mmHg 85%
05:00 +25°C° 0 mm 3 mps 732 mmHg 88%
06:00 +25°C° 0 mm 3 mps 732 mmHg 90%
07:00 +27°C° 0 mm 3 mps 733 mmHg 81%
08:00 +29°C° 0 mm 3 mps 733 mmHg 71%
09:00 +30°C° 0 mm 3 mps 733 mmHg 61%
10:00 +33°C° 0 mm 3 mps 733 mmHg 53%
11:00 +36°C° 0 mm 3 mps 732 mmHg 46%
12:00 +38°C° 0 mm 2 mps 732 mmHg 38%
13:00 +38°C° 0 mm 3 mps 731 mmHg 36%
14:00 +39°C° 0 mm 3 mps 731 mmHg 34%
15:00 +39°C° 0 mm 3 mps 730 mmHg 32%
16:00 +38°C° 0.1 mm 3 mps 730 mmHg 37%
17:00 +36°C° 0.1 mm 3 mps 729 mmHg 43%
18:00 +34°C° 0.1 mm 3 mps 729 mmHg 48%
19:00 +31°C° 0.5 mm 2 mps 730 mmHg 58%
20:00 +29°C° 0.5 mm 2 mps 731 mmHg 68%
21:00 +27°C° 0.5 mm 1 mps 732 mmHg 78%
22:00 +26°C° 0.9 mm 1 mps 732 mmHg 81%
23:00 +26°C° 0.9 mm 1 mps 732 mmHg 83%

Day after tomorrow, 10 May, Monday

Time Temperature Precipitation Wind Pressure Humidity
00:00 +25°C° 0.9 mm 1 mps 732 mmHg 86%
01:00 +25°C° 0 mm 1 mps 732 mmHg 85%
02:00 +25°C° 0 mm 1 mps 731 mmHg 84%
03:00 +25°C° 0 mm 1 mps 731 mmHg 83%
04:00 +25°C° 0 mm 1 mps 731 mmHg 84%
05:00 +25°C° 0 mm 2 mps 731 mmHg 85%
06:00 +25°C° 0 mm 2 mps 731 mmHg 85%
07:00 +27°C° 0 mm 2 mps 732 mmHg 78%
08:00 +29°C° 0 mm 2 mps 732 mmHg 71%
09:00 +30°C° 0 mm 3 mps 733 mmHg 64%
10:00 +34°C° 0 mm 3 mps 732 mmHg 56%
11:00 +36°C° 0 mm 3 mps 732 mmHg 47%
12:00 +38°C° 0 mm 3 mps 731 mmHg 39%
13:00 +38°C° 0 mm 3 mps 731 mmHg 36%
14:00 +39°C° 0 mm 3 mps 730 mmHg 33%
15:00 +40°C° 0 mm 2 mps 729 mmHg 30%
16:00 +39°C° 0 mm 2 mps 729 mmHg 32%
17:00 +38°C° 0 mm 2 mps 729 mmHg 35%
18:00 +36°C° 0 mm 2 mps 729 mmHg 38%
19:00 +35°C° 0.1 mm 2 mps 730 mmHg 44%
20:00 +32°C° 0.1 mm 2 mps 730 mmHg 50%
21:00 +30°C° 0.1 mm 2 mps 731 mmHg 57%
22:00 +29°C° 0.8 mm 2 mps 731 mmHg 65%
23:00 +28°C° 0.8 mm 2 mps 732 mmHg 73%

11 May, Tuesday

Time Temperature Precipitation Wind Pressure Humidity
00:00 +26°C° 0.8 mm 2 mps 732 mmHg 81%
01:00 +26°C° 0 mm 2 mps 732 mmHg 82%
02:00 +26°C° 0 mm 1 mps 731 mmHg 82%
03:00 +26°C° 0 mm 1 mps 731 mmHg 83%
04:00 +26°C° 0.6 mm 1 mps 732 mmHg 86%
05:00 +25°C° 0.6 mm 1 mps 732 mmHg 88%
06:00 +25°C° 0.6 mm 1 mps 733 mmHg 90%
07:00 +27°C° 0 mm 2 mps 733 mmHg 83%
08:00 +28°C° 0 mm 2 mps 733 mmHg 75%
09:00 +30°C° 0 mm 3 mps 733 mmHg 68%
10:00 +33°C° 0 mm 3 mps 733 mmHg 59%
11:00 +35°C° 0 mm 3 mps 732 mmHg 50%
12:00 +38°C° 0 mm 3 mps 732 mmHg 41%
13:00 +39°C° 0 mm 2 mps 731 mmHg 38%
14:00 +39°C° 0 mm 2 mps 731 mmHg 34%
15:00 +40°C° 0 mm 2 mps 730 mmHg 31%
16:00 +39°C° 0 mm 2 mps 730 mmHg 34%
17:00 +38°C° 0 mm 2 mps 730 mmHg 38%
18:00 +36°C° 0 mm 2 mps 729 mmHg 41%
19:00 +34°C° 0.2 mm 2 mps 730 mmHg 50%
20:00 +31°C° 0.2 mm 2 mps 730 mmHg 59%
21:00 +29°C° 0.2 mm 2 mps 731 mmHg 68%
22:00 +28°C° 0.8 mm 2 mps 731 mmHg 73%
23:00 +27°C° 0.8 mm 2 mps 732 mmHg 79%

12 May, Wednesday

Time Temperature Precipitation Wind Pressure Humidity
00:00 +26°C° 0.8 mm 2 mps 732 mmHg 84%
01:00 +26°C° 0 mm 2 mps 732 mmHg 85%
02:00 +26°C° 0 mm 2 mps 732 mmHg 86%
03:00 +26°C° 0 mm 2 mps 732 mmHg 87%
04:00 +26°C° 0 mm 3 mps 732 mmHg 87%
05:00 +26°C° 0 mm 3 mps 732 mmHg 87%
06:00 +26°C° 0 mm 3 mps 732 mmHg 87%
07:00 +27°C° 0 mm 3 mps 733 mmHg 82%
08:00 +28°C° 0 mm 3 mps 733 mmHg 76%
09:00 +29°C° 0 mm 4 mps 734 mmHg 71%
10:00 +31°C° 0 mm 3 mps 733 mmHg 63%
11:00 +34°C° 0 mm 3 mps 733 mmHg 55%
12:00 +36°C° 0 mm 3 mps 733 mmHg 47%
13:00 +37°C° 0 mm 3 mps 732 mmHg 44%
14:00 +37°C° 0 mm 2 mps 731 mmHg 41%
15:00 +38°C° 0 mm 2 mps 730 mmHg 39%
16:00 +37°C° 0 mm 2 mps 730 mmHg 42%
17:00 +36°C° 0 mm 2 mps 730 mmHg 45%
18:00 +35°C° 0 mm 2 mps 730 mmHg 47%
19:00 +32°C° 0.4 mm 2 mps 730 mmHg 56%
20:00 +31°C° 0.4 mm 2 mps 731 mmHg 64%
21:00 +29°C° 0.4 mm 1 mps 731 mmHg 72%
22:00 +28°C° 0.6 mm 1 mps 731 mmHg 76%
23:00 +27°C° 0.6 mm 2 mps 732 mmHg 79%

13 May, Thursday

Time Temperature Precipitation Wind Pressure Humidity
00:00 +26°C° 0.6 mm 2 mps 732 mmHg 83%
01:00 +26°C° 0.5 mm 2 mps 731 mmHg 83%
02:00 +26°C° 0.5 mm 2 mps 731 mmHg 83%
03:00 +26°C° 0.5 mm 3 mps 730 mmHg 84%
04:00 +26°C° 0 mm 2 mps 731 mmHg 85%
05:00 +26°C° 0 mm 2 mps 731 mmHg 85%
06:00 +26°C° 0 mm 1 mps 732 mmHg 86%
07:00 +27°C° 0 mm 2 mps 732 mmHg 81%
08:00 +28°C° 0 mm 3 mps 732 mmHg 76%
09:00 +29°C° 0 mm 5 mps 732 mmHg 71%
10:00 +33°C° 0 mm 3 mps 732 mmHg 62%
11:00 +35°C° 0 mm 2 mps 732 mmHg 53%
12:00 +36°C° 0 mm 1 mps 732 mmHg 44%
13:00 +38°C° 0 mm 2 mps 731 mmHg 42%
14:00 +38°C° 0 mm 2 mps 730 mmHg 39%
15:00 +39°C° 0 mm 2 mps 729 mmHg 37%
16:00 +37°C° 0 mm 2 mps 729 mmHg 41%
17:00 +36°C° 0 mm 2 mps 729 mmHg 45%
18:00 +35°C° 0 mm 2 mps 729 mmHg 49%
19:00 +34°C° 0 mm 2 mps 729 mmHg 53%
20:00 +32°C° 0 mm 2 mps 729 mmHg 56%
21:00 +30°C° 0 mm 2 mps 730 mmHg 60%
22:00 +30°C° 0.1 mm 2 mps 730 mmHg 61%
23:00 +29°C° 0.1 mm 2 mps 730 mmHg 63%
Show more

We Need Your Consent

Meteoprog and our Service Providers may store and access personal data such as cookies, device identifiers or other similar technologies on your device and process such data to personalise content and ads, as well as provide social media features and to analyse the traffic.

  • Store and/or access information on your device

    Cookies, device identifiers or other information can be stored or accessed on your device for the purposes indicated above.

  • Personalised ads and content, ad and content measurement, audience insights, and products development

    Ads and content can be personalised based on a profile. More data can be added to better personalise ads and content. Ad and content performance can be measured. Insights about the audience who saw the ads and content can be derived. Such data can be used to develop or improve user’s experience, systems and software.

By clicking ‘I Agree’ you will allow the use of indicated cookies, device identifiers, web beacons or other similar technologies. Your settings can be changed in the browser on your device.

For certain purposes, legitimate interests may be relied on, rather than consent. You can read more about this in our Privacy and Cookie Policy.